ウェスト-ハートレー彗星

123P/West-Hartley (2026)

English version
Home page
Updated on March 25, 2025

---------------------------------------------------------------------

・ プロフィール

・ 軌道要素

Epoch 2026 Oct. 7.0 TT = JDT 2461320.5                                          
T 2026 Sept. 21.87194 TT                                Rudenko                 
q   2.1587526            (2000.0)            P               Q                  
n   0.12858799     Peri.  103.87639     -0.83897953     -0.51024884             
a   3.8874884      Node    45.84768     +0.33884691     -0.76178201             
e   0.4446922      Incl.   15.28140     +0.42578882     -0.39916700             
P   7.66                                                                        
From 4354 observations 1995 Dec. 21-2019 Aug. 4, mean residual 0".8.            
     Nongravitational parameters A1 = -0.07, A2 = +0.0011.                      

・ 星図

・ 光度変化

        m1 = 4.5 + 5 logΔ + 24.0 log r

---------------------------------------------------------------------

軌道要素はM.P.E.C. 2021-F20に掲載されたものです。
星図はステラナビゲータ Ver.11 (アストロアーツ) で作成したものです。
光度グラフはComet for Windowsで作成したものです。

---------------------------------------------------------------------

Copyright(C) Seiichi Yoshida (comet@aerith.net). All rights reserved.